Find Starlink 1446

NORAD ID: 45663 Int'l Des: 2020-035 Owner: SPXS Country: US Constellation: starlink operational
LEOCIRCULAR

現在のビュー

3D地球を読み込み中...

About Starlink 1446

Starlink 1446 (NORAD 45663) is a starlink constellation satellite (v1.0) launched Jun 4, 2020 by SPXS of US. It operates in LEO, CIRCULAR orbit with a mass of 260.00 kg.

次回通過

Passes for default location (London). Set your location on the main map for personalized predictions.

高度履歴

Loading altitude history...

軌道要素

1 45663U 20035G 26248.20684575 .00026026 00000-0 41895-3 0 9999
2 45663 53.0176 220.4535 0003986 87.6624 272.4841 15.52810604347473
Epoch: Sep 5, 2026 • Age: 15 hours

現在のステータス

高度 420.8 km
遠地点 / 近地点 N/A
速度 7.66 km/s
衛星直下点 -33.52°S, 100.66°W
打ち上げ日 Jun 4, 2020
運用期間 6.2 years
タイプ internet

技術仕様

分類 Payload
質量 260.00 kg
乾燥質量 248.00 kg
総質量 260.00 kg
長さ 0.20 m
直径 2.80 m
スパン 9.00 m
形状 Box + pan
製造者 SPXS
バスタイプ Starlink
フェーズステータス In Orbit
所有者/国 SPXS/US

Most Searched